[{"OBJECT_NAME":"ORBCOMM FM06","OBJECT_ID":"1997-084G","EPOCH":"2026-09-11T13:36:49.000320","MEAN_MOTION":14.47740094,"ECCENTRICITY":0.00016089,"INCLINATION":45.015,"RA_OF_ASC_NODE":356.8124,"ARG_OF_PERICENTER":233.703,"MEAN_ANOMALY":315.9947,"EPHEMERIS_TYPE":0,"CLASSIFICATION_TYPE":"U","NORAD_CAT_ID":25118,"ELEMENT_SET_NO":999,"REV_AT_EPOCH":50690,"BSTAR":0.00025421763,"MEAN_MOTION_DOT":0.00000802,"MEAN_MOTION_DDOT":0},{"OBJECT_NAME":"ORBCOMM FM04","OBJECT_ID":"1998-007C","EPOCH":"2026-09-12T04:54:42.946272","MEAN_MOTION":14.35859096,"ECCENTRICITY":0.00407022,"INCLINATION":107.9604,"RA_OF_ASC_NODE":348.5157,"ARG_OF_PERICENTER":176.8059,"MEAN_ANOMALY":183.3348,"EPHEMERIS_TYPE":0,"CLASSIFICATION_TYPE":"U","NORAD_CAT_ID":25159,"ELEMENT_SET_NO":999,"REV_AT_EPOCH":48908,"BSTAR":0.00022841573,"MEAN_MOTION_DOT":0.00000536,"MEAN_MOTION_DDOT":0},{"OBJECT_NAME":"ORBCOMM FM19","OBJECT_ID":"1998-046C","EPOCH":"2026-09-12T02:20:54.005856","MEAN_MOTION":14.39631692,"ECCENTRICITY":0.00047656,"INCLINATION":44.9928,"RA_OF_ASC_NODE":190.395,"ARG_OF_PERICENTER":4.9853,"MEAN_ANOMALY":11.0011,"EPHEMERIS_TYPE":0,"CLASSIFICATION_TYPE":"U","NORAD_CAT_ID":25415,"ELEMENT_SET_NO":999,"REV_AT_EPOCH":46930,"BSTAR":0.00025981524,"MEAN_MOTION_DOT":0.00000677,"MEAN_MOTION_DDOT":0},{"OBJECT_NAME":"ORBCOMM FM20","OBJECT_ID":"1998-046D","EPOCH":"2026-09-12T03:00:55.439424","MEAN_MOTION":14.38167554,"ECCENTRICITY":0.00024179,"INCLINATION":44.9929,"RA_OF_ASC_NODE":199.1554,"ARG_OF_PERICENTER":335.2019,"MEAN_ANOMALY":24.8712,"EPHEMERIS_TYPE":0,"CLASSIFICATION_TYPE":"U","NORAD_CAT_ID":25416,"ELEMENT_SET_NO":999,"REV_AT_EPOCH":46930,"BSTAR":0.00019058632,"MEAN_MOTION_DOT":0.00000441,"MEAN_MOTION_DDOT":0},{"OBJECT_NAME":"ORBCOMM FM27","OBJECT_ID":"1998-053G","EPOCH":"2026-09-12T02:17:16.380672","MEAN_MOTION":14.39272072,"ECCENTRICITY":0.00029291,"INCLINATION":45.005,"RA_OF_ASC_NODE":282.5224,"ARG_OF_PERICENTER":275.3594,"MEAN_ANOMALY":84.692,"EPHEMERIS_TYPE":0,"CLASSIFICATION_TYPE":"U","NORAD_CAT_ID":25481,"ELEMENT_SET_NO":999,"REV_AT_EPOCH":46275,"BSTAR":0.00020949581,"MEAN_MOTION_DOT":0.00000513,"MEAN_MOTION_DDOT":0},{"OBJECT_NAME":"ORBCOMM FM32","OBJECT_ID":"1999-065C","EPOCH":"2026-09-12T01:01:38.333856","MEAN_MOTION":14.37235863,"ECCENTRICITY":0.00059299,"INCLINATION":45.0147,"RA_OF_ASC_NODE":122.0828,"ARG_OF_PERICENTER":122.6648,"MEAN_ANOMALY":237.4773,"EPHEMERIS_TYPE":0,"CLASSIFICATION_TYPE":"U","NORAD_CAT_ID":25982,"ELEMENT_SET_NO":999,"REV_AT_EPOCH":39958,"BSTAR":0.0001947629,"MEAN_MOTION_DOT":0.00000443,"MEAN_MOTION_DDOT":0},{"OBJECT_NAME":"ORBCOMM FM109","OBJECT_ID":"2014-040A","EPOCH":"2026-09-12T03:27:03.481056","MEAN_MOTION":14.58915192,"ECCENTRICITY":0.00020649,"INCLINATION":47.0041,"RA_OF_ASC_NODE":40.3384,"ARG_OF_PERICENTER":255.4539,"MEAN_ANOMALY":104.6118,"EPHEMERIS_TYPE":0,"CLASSIFICATION_TYPE":"U","NORAD_CAT_ID":40086,"ELEMENT_SET_NO":999,"REV_AT_EPOCH":64704,"BSTAR":0.000086825743,"MEAN_MOTION_DOT":0.0000024,"MEAN_MOTION_DDOT":0},{"OBJECT_NAME":"ORBCOMM FM110","OBJECT_ID":"2015-081D","EPOCH":"2026-09-11T12:42:51.662304","MEAN_MOTION":14.58985533,"ECCENTRICITY":0.00020286,"INCLINATION":47.0026,"RA_OF_ASC_NODE":313.154,"ARG_OF_PERICENTER":132.3691,"MEAN_ANOMALY":227.7367,"EPHEMERIS_TYPE":0,"CLASSIFICATION_TYPE":"U","NORAD_CAT_ID":41182,"ELEMENT_SET_NO":999,"REV_AT_EPOCH":57023,"BSTAR":0.00010586561,"MEAN_MOTION_DOT":0.0000033,"MEAN_MOTION_DDOT":0},{"OBJECT_NAME":"ORBCOMM FM118","OBJECT_ID":"2015-081E","EPOCH":"2026-09-12T04:20:55.400064","MEAN_MOTION":14.58969302,"ECCENTRICITY":0.00017518,"INCLINATION":47.0047,"RA_OF_ASC_NODE":310.4304,"ARG_OF_PERICENTER":69.2398,"MEAN_ANOMALY":290.8675,"EPHEMERIS_TYPE":0,"CLASSIFICATION_TYPE":"U","NORAD_CAT_ID":41183,"ELEMENT_SET_NO":999,"REV_AT_EPOCH":57043,"BSTAR":0.00010602551,"MEAN_MOTION_DOT":0.00000331,"MEAN_MOTION_DDOT":0},{"OBJECT_NAME":"ORBCOMM FM112","OBJECT_ID":"2015-081F","EPOCH":"2026-09-12T06:04:15.857184","MEAN_MOTION":14.58954061,"ECCENTRICITY":0.00035786,"INCLINATION":46.998,"RA_OF_ASC_NODE":218.5084,"ARG_OF_PERICENTER":259.5474,"MEAN_ANOMALY":100.5009,"EPHEMERIS_TYPE":0,"CLASSIFICATION_TYPE":"U","NORAD_CAT_ID":41184,"ELEMENT_SET_NO":999,"REV_AT_EPOCH":57166,"BSTAR":0.00010931448,"MEAN_MOTION_DOT":0.00000346,"MEAN_MOTION_DDOT":0},{"OBJECT_NAME":"ORBCOMM FM113","OBJECT_ID":"2015-081G","EPOCH":"2026-09-12T05:34:48.432864","MEAN_MOTION":14.58929023,"ECCENTRICITY":0.00023776,"INCLINATION":46.9995,"RA_OF_ASC_NODE":219.0262,"ARG_OF_PERICENTER":263.6836,"MEAN_ANOMALY":96.3779,"EPHEMERIS_TYPE":0,"CLASSIFICATION_TYPE":"U","NORAD_CAT_ID":41185,"ELEMENT_SET_NO":999,"REV_AT_EPOCH":57164,"BSTAR":0.000083463339,"MEAN_MOTION_DOT":0.00000224,"MEAN_MOTION_DDOT":0},{"OBJECT_NAME":"ORBCOMM FM108","OBJECT_ID":"2015-081J","EPOCH":"2026-09-11T15:28:59.379744","MEAN_MOTION":14.58975945,"ECCENTRICITY":0.00025084,"INCLINATION":47.0043,"RA_OF_ASC_NODE":133.3904,"ARG_OF_PERICENTER":244.9293,"MEAN_ANOMALY":115.1333,"EPHEMERIS_TYPE":0,"CLASSIFICATION_TYPE":"U","NORAD_CAT_ID":41187,"ELEMENT_SET_NO":999,"REV_AT_EPOCH":57270,"BSTAR":0.00011896326,"MEAN_MOTION_DOT":0.00000392,"MEAN_MOTION_DDOT":0},{"OBJECT_NAME":"ORBCOMM FM117","OBJECT_ID":"2015-081K","EPOCH":"2026-09-12T00:32:11.140224","MEAN_MOTION":14.58958569,"ECCENTRICITY":0.00029946,"INCLINATION":47.0004,"RA_OF_ASC_NODE":130.2211,"ARG_OF_PERICENTER":251.6594,"MEAN_ANOMALY":108.3967,"EPHEMERIS_TYPE":0,"CLASSIFICATION_TYPE":"U","NORAD_CAT_ID":41188,"ELEMENT_SET_NO":999,"REV_AT_EPOCH":57280,"BSTAR":0.00011867547,"MEAN_MOTION_DOT":0.00000391,"MEAN_MOTION_DDOT":0},{"OBJECT_NAME":"ORBCOMM FM116","OBJECT_ID":"2015-081L","EPOCH":"2026-09-12T06:38:26.507616","MEAN_MOTION":14.58955952,"ECCENTRICITY":0.00004411,"INCLINATION":47.0012,"RA_OF_ASC_NODE":218.8159,"ARG_OF_PERICENTER":80.2512,"MEAN_ANOMALY":279.8424,"EPHEMERIS_TYPE":0,"CLASSIFICATION_TYPE":"U","NORAD_CAT_ID":41189,"ELEMENT_SET_NO":999,"REV_AT_EPOCH":57165,"BSTAR":0.000085169304,"MEAN_MOTION_DOT":0.00000232,"MEAN_MOTION_DDOT":0}]